sat.trackr.live / text

‹ back to catalog

STARLINK-31768

NORAD 59616 · 2024-080R

PAYLOAD ACTIVE UNKNOWN

§ Identity

Operator
Country
US
Launch date
2024-04-28
Launch site
AFETR
Launch vehicle
Mass (kg)
RCS (m²)

Purposes: comms

External: N2YO · Heavens-Above · Gunter

§ Orbital elements

Epoch: 2026-09-21T14:25:56.486208Z

Period
94.27 min
Inclination
43.0029°
Eccentricity
0.0001158
Mean motion
15.27597395 rev/d
Perigee alt
482.2 km
Apogee alt
483.8 km
Semi-major
6,861.1 km
B*
-7.1555e-5
RAAN
11.6027°
Arg perigee
268.8279°
Mean anomaly
91.2440°
Rev number
13,449

§ Raw data

STARLINK-317681 59616U 24080R   26264.60134822 -.00002232  00000+0 -71555-4 0  99942 59616  43.0029  11.6027 0001158 268.8279  91.2440 15.27597395134495

JSON: /api/v1/satellites/59616 · /tle

For live sub-satellite position, see the globe view (requires WebGL).

§ Visibility from observer

Set your observer location to see the next 7 days of passes ≥ 10°. The values pass through the URL so the page stays shareable.

No JS? Fill the form by hand. The geolocation button needs JavaScript.